TimePST,TemperatureF,Dew PointF,Humidity,Sea Level PressureIn,VisibilityMPH,Wind Direction,Wind SpeedMPH,Gust SpeedMPH,PrecipitationIn,Events,Conditions,WindDirDegrees,DateUTC
12:58 AM,32.5,32.5,100,30.15,10.0,South,10.4,-,N/A,,Mostly Cloudy,190,2012-12-06 08:58:00
1:58 AM,32.4,32.4,100,30.16,10.0,South,6.9,-,N/A,,Overcast,180,2012-12-06 09:58:00
2:58 AM,30.7,30.7,100,30.16,10.0,South,9.2,-,N/A,,Mostly Cloudy,190,2012-12-06 10:58:00
3:58 AM,30.7,30.7,100,30.14,10.0,South,11.5,-,N/A,,Overcast,180,2012-12-06 11:58:00
4:05 AM,32.0,32.0,100,30.07,10.0,South,9.2,-,N/A,,Overcast,180,2012-12-06 12:05:00
4:11 AM,32.0,32.0,100,30.07,10.0,South,8.1,-,N/A,,Overcast,180,2012-12-06 12:11:00
4:58 AM,30.4,30.4,100,30.14,10.0,South,9.2,-,0.00,,Scattered Clouds,190,2012-12-06 12:58:00
5:35 AM,32.0,32.0,100,30.06,10.0,SSW,11.5,-,N/A,,Overcast,200,2012-12-06 13:35:00
5:51 AM,32.0,32.0,100,30.06,10.0,South,11.5,-,N/A,,Overcast,190,2012-12-06 13:51:00
5:58 AM,30.6,30.6,100,30.13,10.0,SSW,10.4,-,0.00,,Overcast,200,2012-12-06 13:58:00
6:58 AM,30.7,30.7,100,30.12,10.0,South,10.4,-,N/A,,Overcast,180,2012-12-06 14:58:00
7:58 AM,30.9,30.9,100,30.12,10.0,South,12.7,-,N/A,,Mostly Cloudy,180,2012-12-06 15:58:00
8:58 AM,31.6,31.6,100,30.13,10.0,South,10.4,-,N/A,,Overcast,190,2012-12-06 16:58:00
9:58 AM,32.0,32.0,100,30.13,10.0,South,10.4,-,N/A,,Overcast,190,2012-12-06 17:58:00
10:09 AM,32.0,32.0,100,30.05,10.0,South,10.4,-,N/A,,Overcast,180,2012-12-06 18:09:00
10:58 AM,32.4,32.4,100,30.11,10.0,South,13.8,-,N/A,,Overcast,190,2012-12-06 18:58:00
11:10 AM,32.0,32.0,100,30.03,10.0,SSW,15.0,-,N/A,,Overcast,210,2012-12-06 19:10:00
11:25 AM,32.0,32.0,100,30.03,6.0,SSW,13.8,-,N/A,Rain,Light Rain,200,2012-12-06 19:25:00
11:39 AM,32.0,32.0,100,30.02,8.0,South,13.8,-,N/A,Rain,Light Rain,190,2012-12-06 19:39:00
11:44 AM,32.0,32.0,100,30.02,7.0,South,12.7,-,N/A,Rain,Light Rain,190,2012-12-06 19:44:00
11:49 AM,32.0,32.0,100,30.02,7.0,South,11.5,-,N/A,Rain,Light Rain,190,2012-12-06 19:49:00
11:58 AM,32.7,32.7,100,30.09,10.0,SSW,11.5,-,0.00,Rain,Light Rain,200,2012-12-06 19:58:00
12:00 PM,32.0,32.0,100,30.02,10.0,SSW,12.7,-,N/A,,Overcast,200,2012-12-06 20:00:00
12:58 PM,34.2,34.2,100,30.06,10.0,South,12.7,-,0.00,,Partly Cloudy,190,2012-12-06 20:58:00
1:05 PM,33.8,33.8,100,29.99,10.0,SSW,11.5,-,N/A,,Partly Cloudy,200,2012-12-06 21:05:00
1:14 PM,33.8,33.8,100,29.99,10.0,SSW,9.2,-,N/A,,Partly Cloudy,200,2012-12-06 21:14:00
1:29 PM,33.8,33.8,100,29.98,10.0,South,11.5,-,N/A,,Clear,190,2012-12-06 21:29:00
1:36 PM,33.8,33.8,100,29.98,10.0,SSW,12.7,-,N/A,,Clear,200,2012-12-06 21:36:00
1:58 PM,34.3,34.3,100,30.04,10.0,South,12.7,-,0.00,,Scattered Clouds,190,2012-12-06 21:58:00
2:05 PM,33.8,33.8,100,29.97,10.0,South,10.4,-,N/A,,Scattered Clouds,190,2012-12-06 22:05:00
2:22 PM,33.8,33.8,100,29.96,10.0,SSW,12.7,-,N/A,,Scattered Clouds,200,2012-12-06 22:22:00
2:25 PM,33.8,33.8,100,29.96,10.0,South,12.7,-,N/A,,Scattered Clouds,190,2012-12-06 22:25:00
2:35 PM,33.8,33.8,100,29.96,10.0,SSW,11.5,-,N/A,,Mostly Cloudy,200,2012-12-06 22:35:00
2:49 PM,33.8,33.8,100,29.95,10.0,SSW,10.4,-,N/A,,Mostly Cloudy,200,2012-12-06 22:49:00
2:54 PM,33.8,33.8,100,29.95,10.0,SSW,12.7,-,N/A,,Mostly Cloudy,200,2012-12-06 22:54:00
2:58 PM,34.0,34.0,100,30.02,10.0,South,15.0,-,0.00,,Mostly Cloudy,190,2012-12-06 22:58:00
3:06 PM,33.8,33.8,100,29.95,10.0,South,15.0,19.6,N/A,,Scattered Clouds,190,2012-12-06 23:06:00
3:25 PM,33.8,33.8,100,29.95,10.0,South,15.0,-,N/A,,Mostly Cloudy,190,2012-12-06 23:25:00
3:26 PM,33.8,33.8,100,29.95,10.0,South,15.0,-,N/A,,Mostly Cloudy,190,2012-12-06 23:26:00
3:36 PM,33.8,33.8,100,29.95,10.0,South,15.0,-,N/A,Snow,Light Snow,190,2012-12-06 23:36:00
3:51 PM,32.0,32.0,100,29.95,8.0,SSW,13.8,-,N/A,Rain,Light Rain,200,2012-12-06 23:51:00
3:58 PM,33.4,33.4,100,30.02,10.0,South,13.8,-,0.00,Rain,Light Rain,190,2012-12-06 23:58:00
4:03 PM,32.0,32.0,100,29.94,9.0,SSW,11.5,-,N/A,Snow,Light Snow,200,2012-12-07 00:03:00
4:18 PM,32.0,32.0,100,29.94,7.0,South,11.5,21.9,N/A,Snow,Light Snow,190,2012-12-07 00:18:00
4:48 PM,32.0,32.0,100,29.93,10.0,SSW,13.8,19.6,N/A,Rain,Light Rain,200,2012-12-07 00:48:00
4:58 PM,33.6,33.6,100,30.00,10.0,SSW,16.1,20.7,0.00,Rain,Light Rain,200,2012-12-07 00:58:00
5:02 PM,33.8,33.8,100,29.93,10.0,South,16.1,23.0,N/A,,Overcast,190,2012-12-07 01:02:00
5:07 PM,32.0,32.0,100,29.93,10.0,South,13.8,25.3,N/A,,Overcast,190,2012-12-07 01:07:00
5:09 PM,32.0,32.0,100,29.93,10.0,SSW,12.7,25.3,N/A,Rain,Light Rain,200,2012-12-07 01:09:00
5:15 PM,33.8,33.8,100,29.93,10.0,SSW,11.5,25.3,N/A,,Overcast,210,2012-12-07 01:15:00
5:36 PM,33.8,33.8,100,29.92,10.0,SSW,16.1,-,N/A,Rain,Light Rain,200,2012-12-07 01:36:00
5:46 PM,33.8,33.8,100,29.92,10.0,SSW,16.1,-,N/A,,Mostly Cloudy,210,2012-12-07 01:46:00
5:58 PM,33.8,33.8,100,29.99,10.0,SSW,13.8,-,0.00,,Overcast,210,2012-12-07 01:58:00
6:08 PM,33.8,33.8,100,29.92,10.0,SSW,15.0,23.0,N/A,Rain,Light Rain,210,2012-12-07 02:08:00
6:21 PM,33.8,33.8,100,29.92,10.0,SSW,16.1,-,N/A,,Mostly Cloudy,210,2012-12-07 02:21:00
6:28 PM,33.8,33.8,100,29.92,10.0,SW,13.8,-,N/A,Rain,Light Rain,220,2012-12-07 02:28:00
6:44 PM,33.8,33.8,100,29.92,10.0,SSW,13.8,-,N/A,,Mostly Cloudy,210,2012-12-07 02:44:00
6:58 PM,34.2,34.2,100,29.99,10.0,SSW,13.8,-,0.00,,Mostly Cloudy,210,2012-12-07 02:58:00
7:01 PM,33.8,33.8,100,29.92,10.0,SSW,13.8,-,N/A,Rain,Light Rain,210,2012-12-07 03:01:00
7:06 PM,33.8,33.8,100,29.91,10.0,SSW,15.0,-,N/A,Rain,Light Rain,210,2012-12-07 03:06:00
7:22 PM,33.8,33.8,100,29.92,10.0,SSW,16.1,-,N/A,,Scattered Clouds,210,2012-12-07 03:22:00
7:58 PM,33.8,33.8,100,30.00,10.0,SW,16.1,23.0,0.00,,Partly Cloudy,220,2012-12-07 03:58:00
8:08 PM,32.0,32.0,100,29.93,10.0,SW,13.8,-,N/A,,Partly Cloudy,220,2012-12-07 04:08:00
8:53 PM,32.0,32.0,100,29.94,10.0,SW,13.8,-,N/A,,Scattered Clouds,230,2012-12-07 04:53:00
8:58 PM,33.3,33.3,100,30.01,10.0,SW,15.0,-,0.00,,Partly Cloudy,230,2012-12-07 04:58:00
9:06 PM,32.0,32.0,100,29.94,10.0,SW,15.0,-,N/A,,Clear,230,2012-12-07 05:06:00
9:58 PM,32.5,32.5,100,30.02,10.0,SW,12.7,-,0.00,,Partly Cloudy,230,2012-12-07 05:58:00
10:12 PM,32.0,32.0,100,29.94,10.0,WSW,8.1,-,N/A,,Partly Cloudy,240,2012-12-07 06:12:00
10:32 PM,32.0,32.0,100,29.95,10.0,WSW,10.4,-,N/A,,Mostly Cloudy,240,2012-12-07 06:32:00
10:37 PM,32.0,32.0,100,29.95,10.0,WSW,10.4,-,N/A,,Scattered Clouds,240,2012-12-07 06:37:00
10:42 PM,32.0,32.0,100,29.95,10.0,WSW,10.4,-,N/A,,Mostly Cloudy,240,2012-12-07 06:42:00
10:58 PM,31.3,31.3,100,30.02,10.0,SW,11.5,-,N/A,,Mostly Cloudy,230,2012-12-07 06:58:00
11:03 PM,32.0,32.0,100,29.95,10.0,WSW,11.5,-,N/A,,Scattered Clouds,240,2012-12-07 07:03:00
11:23 PM,32.0,32.0,100,29.95,10.0,WSW,10.4,-,N/A,,Mostly Cloudy,240,2012-12-07 07:23:00
11:58 PM,30.2,30.2,100,30.04,10.0,WSW,8.1,-,N/A,,Scattered Clouds,250,2012-12-07 07:58:00